TimeCST,TemperatureF,Dew PointF,Humidity,Sea Level PressureIn,VisibilityMPH,Wind Direction,Wind SpeedMPH,Gust SpeedMPH,PrecipitationIn,Events,Conditions,WindDirDegrees,DateUTC
12:00 AM,62.6,62.6,100,30.06,6.2,Calm,Calm,-,N/A,,Partly Cloudy,0,2012-10-17 06:00:00
1:00 AM,64.4,64.4,100,30.04,6.2,Calm,Calm,-,N/A,,Partly Cloudy,0,2012-10-17 07:00:00
2:00 AM,62.6,62.6,100,30.04,6.2,Calm,Calm,-,N/A,,Scattered Clouds,0,2012-10-17 08:00:00
3:00 AM,62,62,100,29.91,6,Calm,Calm,,,,Mist,,2012-10-17 09:00:00
3:00 AM,62.6,62.6,100,30.01,6.2,Calm,Calm,-,N/A,,Mostly Cloudy,0,2012-10-17 09:00:00
4:00 AM,62.6,62.6,100,30.01,6.2,Calm,Calm,-,N/A,,Mostly Cloudy,0,2012-10-17 10:00:00
5:00 AM,62.6,62.6,100,30.01,6.2,Calm,Calm,-,N/A,,Mostly Cloudy,0,2012-10-17 11:00:00
6:00 AM,62,62,98,29.94,6,Calm,Calm,,,,Mist,,2012-10-17 12:00:00
6:00 AM,60.8,60.8,100,30.04,6.2,Calm,Calm,-,N/A,,Mostly Cloudy,0,2012-10-17 12:00:00
7:00 AM,62.6,60.8,94,30.06,6.2,Calm,Calm,-,N/A,,Mostly Cloudy,0,2012-10-17 13:00:00
8:00 AM,68.0,64.4,88,30.06,6.2,Variable,2.3,-,N/A,,Unknown,0,2012-10-17 14:00:00
9:00 AM,74,66,70,29.88,7,NNE,2.3,,,,Haze,30,2012-10-17 15:00:00
9:00 AM,73.4,66.2,78,30.09,6.2,NNE,2.3,-,N/A,,Unknown,30,2012-10-17 15:00:00
10:00 AM,78.8,62.6,57,30.06,6.2,Variable,2.3,-,N/A,,Partly Cloudy,0,2012-10-17 16:00:00
11:00 AM,82.4,64.4,54,30.04,6.2,Variable,2.3,-,N/A,,Partly Cloudy,0,2012-10-17 17:00:00
12:00 PM,83,63,42,29.75,9,NNE,5.8,,,,Haze,20,2012-10-17 18:00:00
12:00 PM,84.2,62.6,48,30.01,6.2,NNE,5.8,-,N/A,,Scattered Clouds,20,2012-10-17 18:00:00
1:00 PM,84.2,64.4,51,29.98,6.2,NNE,4.6,-,N/A,,Scattered Clouds,20,2012-10-17 19:00:00
2:00 PM,80.6,66.2,61,29.95,6.2,SSW,5.8,-,N/A,,Scattered Clouds,200,2012-10-17 20:00:00
3:00 PM,80,67,57,29.69,9,South,11.5,,,,Haze,190,2012-10-17 21:00:00
3:00 PM,80.6,68.0,65,29.92,6.2,South,11.5,-,N/A,,Scattered Clouds,190,2012-10-17 21:00:00
4:00 PM,80.6,69.8,70,29.92,6.2,South,11.5,-,N/A,,Scattered Clouds,190,2012-10-17 22:00:00
5:00 PM,77.0,69.8,78,29.95,6.2,South,8.1,-,N/A,,Mostly Cloudy,180,2012-10-17 23:00:00
6:00 PM,73,70,89,29.76,6,SE,4.6,,,,Mostly Cloudy,140,2012-10-18 00:00:00
6:00 PM,73.4,69.8,88,29.95,5.6,SE,3.5,-,N/A,,Scattered Clouds,140,2012-10-18 00:00:00
7:00 PM,73.4,69.8,88,30.01,6.2,South,5.8,-,N/A,,Scattered Clouds,180,2012-10-18 01:00:00
8:00 PM,69.8,69.8,100,30.01,6.2,SSE,3.5,-,N/A,,Scattered Clouds,150,2012-10-18 02:00:00
9:00 PM,70,69,94,29.88,,South,3.5,,,,Haze,170,2012-10-18 03:00:00
9:00 PM,69.8,68.0,94,30.06,6.2,South,3.5,-,N/A,,Mostly Cloudy,170,2012-10-18 03:00:00
10:00 PM,69.8,68.0,94,30.06,6.2,South,3.5,-,N/A,,Mostly Cloudy,180,2012-10-18 04:00:00
11:00 PM,68.0,68.0,100,30.06,6.2,South,2.3,-,N/A,,Scattered Clouds,170,2012-10-18 05:00:00